Year,Month,Day,Hour,Minute,Value (Times are PST for temperature in C)
2014,09,28,00,00,10.00
2014,09,28,00,01,10.00
2014,09,28,00,02,9.90
2014,09,28,00,03,9.90
2014,09,28,00,04,9.90
2014,09,28,00,05,9.90
2014,09,28,00,06,9.90
2014,09,28,00,07,9.80
2014,09,28,00,08,9.80
2014,09,28,00,09,9.80
2014,09,28,00,10,9.80
2014,09,28,00,11,9.80
2014,09,28,00,12,9.80
2014,09,28,00,13,9.80
2014,09,28,00,14,9.70
2014,09,28,00,15,9.70
2014,09,28,00,16,9.70
2014,09,28,00,17,9.70
2014,09,28,00,18,9.70
2014,09,28,00,19,9.80
2014,09,28,00,20,9.80
2014,09,28,00,21,9.80
2014,09,28,00,22,9.80
2014,09,28,00,23,9.80
2014,09,28,00,24,9.80
2014,09,28,00,25,9.80
2014,09,28,00,26,9.80
2014,09,28,00,27,9.80
2014,09,28,00,28,9.90
2014,09,28,00,29,9.80
2014,09,28,00,30,9.90
2014,09,28,00,31,9.80
2014,09,28,00,32,9.80
2014,09,28,00,33,9.80
2014,09,28,00,34,9.80
2014,09,28,00,35,9.80
2014,09,28,00,36,9.80
2014,09,28,00,37,9.80
2014,09,28,00,38,9.80
2014,09,28,00,39,9.80
2014,09,28,00,40,9.80
2014,09,28,00,41,9.80
2014,09,28,00,42,9.80
2014,09,28,00,43,9.80
2014,09,28,00,44,9.80
2014,09,28,00,45,9.80
2014,09,28,00,46,9.80
2014,09,28,00,47,9.70
2014,09,28,00,48,9.70
2014,09,28,00,49,9.70
2014,09,28,00,50,9.70
2014,09,28,00,51,9.70
2014,09,28,00,52,9.70
2014,09,28,00,53,9.70
2014,09,28,00,54,9.70
2014,09,28,00,55,9.70
2014,09,28,00,56,9.70
2014,09,28,00,57,9.70
2014,09,28,00,58,9.70
2014,09,28,00,59,9.70
2014,09,28,01,00,9.70
2014,09,28,01,01,9.70
2014,09,28,01,02,9.70
2014,09,28,01,03,9.70
2014,09,28,01,04,9.70
2014,09,28,01,05,9.70
2014,09,28,01,06,9.70
2014,09,28,01,07,9.70
2014,09,28,01,08,9.70
2014,09,28,01,09,9.70
2014,09,28,01,10,9.60
2014,09,28,01,11,9.60
2014,09,28,01,12,9.60
2014,09,28,01,13,9.60
2014,09,28,01,14,9.60
2014,09,28,01,15,9.50
2014,09,28,01,16,9.50
2014,09,28,01,17,9.50
2014,09,28,01,18,9.60
2014,09,28,01,19,9.50
2014,09,28,01,20,9.50
2014,09,28,01,21,9.50
2014,09,28,01,22,9.50
2014,09,28,01,23,9.50
2014,09,28,01,24,9.50
2014,09,28,01,25,9.50
2014,09,28,01,26,9.50
2014,09,28,01,27,9.60
2014,09,28,01,28,9.60
2014,09,28,01,29,9.60
2014,09,28,01,30,9.60
2014,09,28,01,31,9.60
2014,09,28,01,32,9.60
2014,09,28,01,33,9.60
2014,09,28,01,34,9.50
2014,09,28,01,35,9.50
2014,09,28,01,36,9.50
2014,09,28,01,37,9.50
2014,09,28,01,38,9.40
2014,09,28,01,39,9.40
2014,09,28,01,40,9.40
2014,09,28,01,41,9.30
2014,09,28,01,42,9.30
2014,09,28,01,43,9.30
2014,09,28,01,44,9.30
2014,09,28,01,45,9.30
2014,09,28,01,46,9.30
2014,09,28,01,47,9.30
2014,09,28,01,48,9.30
2014,09,28,01,49,9.30
2014,09,28,01,50,9.30
2014,09,28,01,51,9.30
2014,09,28,01,52,9.30
2014,09,28,01,53,9.40
2014,09,28,01,54,9.40
2014,09,28,01,55,9.40
2014,09,28,01,56,9.40
2014,09,28,01,57,9.40
2014,09,28,01,58,9.30
2014,09,28,01,59,9.30
2014,09,28,02,00,9.30
2014,09,28,02,01,9.20
2014,09,28,02,02,9.20
2014,09,28,02,03,9.20
2014,09,28,02,04,9.20
2014,09,28,02,05,9.20
2014,09,28,02,06,9.20
2014,09,28,02,07,9.10
2014,09,28,02,08,9.10
2014,09,28,02,09,9.10
2014,09,28,02,10,9.20
2014,09,28,02,11,9.10
2014,09,28,02,12,9.20
2014,09,28,02,13,9.10
2014,09,28,02,14,9.10
2014,09,28,02,15,9.10
2014,09,28,02,16,9.10
2014,09,28,02,17,9.10
2014,09,28,02,18,9.10
2014,09,28,02,19,9.10
2014,09,28,02,20,9.00
2014,09,28,02,21,9.00
2014,09,28,02,22,9.00
2014,09,28,02,23,9.00
2014,09,28,02,24,9.00
2014,09,28,02,25,9.10
2014,09,28,02,26,9.10
2014,09,28,02,27,9.10
2014,09,28,02,28,9.10
2014,09,28,02,29,9.10
2014,09,28,02,30,9.20
2014,09,28,02,31,9.20
2014,09,28,02,32,9.20
2014,09,28,02,33,9.20
2014,09,28,02,34,9.30
2014,09,28,02,35,9.20
2014,09,28,02,36,9.30
2014,09,28,02,37,9.30
2014,09,28,02,38,9.30
2014,09,28,02,39,9.20
2014,09,28,02,40,9.20
2014,09,28,02,41,9.20
2014,09,28,02,42,9.20
2014,09,28,02,43,9.20
2014,09,28,02,44,9.20
2014,09,28,02,45,9.10
2014,09,28,02,46,9.10
2014,09,28,02,47,9.10
2014,09,28,02,48,9.10
2014,09,28,02,49,9.10
2014,09,28,02,50,9.00
2014,09,28,02,51,9.00
2014,09,28,02,52,9.00
2014,09,28,02,53,9.00
2014,09,28,02,54,8.90
2014,09,28,02,55,8.90
2014,09,28,02,56,8.90
2014,09,28,02,57,8.90
2014,09,28,02,58,8.80
2014,09,28,02,59,8.80
2014,09,28,03,00,8.80
2014,09,28,03,01,8.80
2014,09,28,03,02,8.80
2014,09,28,03,03,8.70
2014,09,28,03,04,8.70
2014,09,28,03,05,8.70
2014,09,28,03,06,8.70
2014,09,28,03,07,8.70
2014,09,28,03,08,8.70
2014,09,28,03,09,8.70
2014,09,28,03,10,8.70
2014,09,28,03,11,8.80
2014,09,28,03,12,8.80
2014,09,28,03,13,8.80
2014,09,28,03,14,8.80
2014,09,28,03,15,8.80
2014,09,28,03,16,8.80
2014,09,28,03,17,8.80
2014,09,28,03,18,8.80
2014,09,28,03,19,8.80
2014,09,28,03,20,8.80
2014,09,28,03,21,8.80
2014,09,28,03,22,8.80
2014,09,28,03,23,8.70
2014,09,28,03,24,8.70
2014,09,28,03,25,8.70
2014,09,28,03,26,8.70
2014,09,28,03,27,8.70
2014,09,28,03,28,8.70
2014,09,28,03,29,8.70
2014,09,28,03,30,8.70
2014,09,28,03,31,8.70
2014,09,28,03,32,8.70
2014,09,28,03,33,8.70
2014,09,28,03,34,8.70
2014,09,28,03,35,8.70
2014,09,28,03,36,8.70
2014,09,28,03,37,8.70
2014,09,28,03,38,8.70
2014,09,28,03,39,8.70
2014,09,28,03,40,8.60
2014,09,28,03,41,8.60
2014,09,28,03,42,8.60
2014,09,28,03,43,8.60
2014,09,28,03,44,8.70
2014,09,28,03,45,8.70
2014,09,28,03,46,8.60
2014,09,28,03,47,8.60
2014,09,28,03,48,8.60
2014,09,28,03,49,8.60
2014,09,28,03,50,8.60
2014,09,28,03,51,8.60
2014,09,28,03,52,8.60
2014,09,28,03,53,8.60
2014,09,28,03,54,8.60
2014,09,28,03,55,8.60
2014,09,28,03,56,8.60
2014,09,28,03,57,8.60
2014,09,28,03,58,8.60
2014,09,28,03,59,8.60
2014,09,28,04,00,8.60
2014,09,28,04,01,8.60
2014,09,28,04,02,8.50
2014,09,28,04,03,8.50
2014,09,28,04,04,8.50
2014,09,28,04,05,8.50
2014,09,28,04,06,8.50
2014,09,28,04,07,8.50
2014,09,28,04,08,8.50
2014,09,28,04,09,8.50
2014,09,28,04,10,8.50
2014,09,28,04,11,8.50
2014,09,28,04,12,8.50
2014,09,28,04,13,8.50
2014,09,28,04,14,8.50
2014,09,28,04,15,8.40
2014,09,28,04,16,8.40
2014,09,28,04,17,8.40
2014,09,28,04,18,8.50
2014,09,28,04,19,8.50
2014,09,28,04,20,8.50
2014,09,28,04,21,8.50
2014,09,28,04,22,8.50
2014,09,28,04,23,8.50
2014,09,28,04,24,8.50
2014,09,28,04,25,8.50
2014,09,28,04,26,8.50
2014,09,28,04,27,8.50
2014,09,28,04,28,8.50
2014,09,28,04,29,8.50
2014,09,28,04,30,8.50
2014,09,28,04,31,8.40
2014,09,28,04,32,8.40
2014,09,28,04,33,8.40
2014,09,28,04,34,8.40
2014,09,28,04,35,8.40
2014,09,28,04,36,8.40
2014,09,28,04,37,8.40
2014,09,28,04,38,8.40
2014,09,28,04,39,8.40
2014,09,28,04,40,8.40
2014,09,28,04,41,8.40
2014,09,28,04,42,8.40
2014,09,28,04,43,8.40
2014,09,28,04,44,8.40
2014,09,28,04,45,8.40
2014,09,28,04,46,8.40
2014,09,28,04,47,8.40
2014,09,28,04,48,8.50
2014,09,28,04,49,8.50
2014,09,28,04,50,8.50
2014,09,28,04,51,8.50
2014,09,28,04,52,8.40
2014,09,28,04,53,8.40
2014,09,28,04,54,8.40
2014,09,28,04,55,8.40
2014,09,28,04,56,8.40
2014,09,28,04,57,8.40
2014,09,28,04,58,8.40
2014,09,28,04,59,8.40
2014,09,28,05,00,8.40
2014,09,28,05,01,8.50
2014,09,28,05,02,8.50
2014,09,28,05,03,8.50
2014,09,28,05,04,8.50
2014,09,28,05,05,8.40
2014,09,28,05,06,8.40
2014,09,28,05,07,8.40
2014,09,28,05,08,8.40
2014,09,28,05,09,8.40
2014,09,28,05,10,8.40
2014,09,28,05,11,8.40
2014,09,28,05,12,8.40
2014,09,28,05,13,8.40
2014,09,28,05,14,8.40
2014,09,28,05,15,8.40
2014,09,28,05,16,8.30
2014,09,28,05,17,8.30
2014,09,28,05,18,8.30
2014,09,28,05,19,8.30
2014,09,28,05,20,8.30
2014,09,28,05,21,8.30
2014,09,28,05,22,8.30
2014,09,28,05,23,8.30
2014,09,28,05,24,8.20
2014,09,28,05,25,8.20
2014,09,28,05,26,8.20
2014,09,28,05,27,8.20
2014,09,28,05,28,8.20
2014,09,28,05,29,8.20
2014,09,28,05,30,8.20
2014,09,28,05,31,8.20
2014,09,28,05,32,8.20
2014,09,28,05,33,8.30
2014,09,28,05,34,8.30
2014,09,28,05,35,8.30
2014,09,28,05,36,8.30
2014,09,28,05,37,8.40
2014,09,28,05,38,8.40
2014,09,28,05,39,8.40
2014,09,28,05,40,8.40
2014,09,28,05,41,8.50
2014,09,28,05,42,8.50
2014,09,28,05,43,8.50
2014,09,28,05,44,8.50
2014,09,28,05,45,8.50
2014,09,28,05,46,8.40
2014,09,28,05,47,8.50
2014,09,28,05,48,8.50
2014,09,28,05,49,8.50
2014,09,28,05,50,8.50
2014,09,28,05,51,8.50
2014,09,28,05,52,8.50
2014,09,28,05,53,8.50
2014,09,28,05,54,8.50
2014,09,28,05,55,8.50
2014,09,28,05,56,8.50
2014,09,28,05,57,8.50
2014,09,28,05,58,8.50
2014,09,28,05,59,8.40
2014,09,28,06,00,8.40
2014,09,28,06,01,8.40
2014,09,28,06,02,8.30
2014,09,28,06,03,8.30
2014,09,28,06,04,8.30
2014,09,28,06,05,8.30
2014,09,28,06,06,8.30
2014,09,28,06,07,8.30
2014,09,28,06,08,8.30
2014,09,28,06,09,8.30
2014,09,28,06,10,8.30
2014,09,28,06,11,8.30
2014,09,28,06,12,8.30
2014,09,28,06,13,8.30
2014,09,28,06,14,8.30
2014,09,28,06,15,8.30
2014,09,28,06,16,8.30
2014,09,28,06,17,8.30
2014,09,28,06,18,8.30
2014,09,28,06,19,8.30
2014,09,28,06,20,8.20
2014,09,28,06,21,8.20
2014,09,28,06,22,8.20
2014,09,28,06,23,8.20
2014,09,28,06,24,8.20
2014,09,28,06,25,8.20
2014,09,28,06,26,8.20
2014,09,28,06,27,8.20
2014,09,28,06,28,8.20
2014,09,28,06,29,8.20
2014,09,28,06,30,8.20
2014,09,28,06,31,8.20
2014,09,28,06,32,8.20
2014,09,28,06,33,8.20
2014,09,28,06,34,8.20
2014,09,28,06,35,8.20
2014,09,28,06,36,8.20
2014,09,28,06,37,8.20
2014,09,28,06,38,8.20
2014,09,28,06,39,8.20
2014,09,28,06,40,8.20
2014,09,28,06,41,8.20
2014,09,28,06,42,8.20
2014,09,28,06,43,8.20
2014,09,28,06,44,8.10
2014,09,28,06,45,8.10
2014,09,28,06,46,8.10
2014,09,28,06,47,8.20
2014,09,28,06,48,8.20
2014,09,28,06,49,8.20
2014,09,28,06,50,8.20
2014,09,28,06,51,8.20
2014,09,28,06,52,8.20
2014,09,28,06,53,8.20
2014,09,28,06,54,8.20
2014,09,28,06,55,8.20
2014,09,28,06,56,8.20
2014,09,28,06,57,8.20
2014,09,28,06,58,8.20
2014,09,28,06,59,8.20
2014,09,28,07,00,8.20
2014,09,28,07,01,8.20
2014,09,28,07,02,8.10
2014,09,28,07,03,8.10
2014,09,28,07,04,8.10
2014,09,28,07,05,8.10
2014,09,28,07,06,8.10
2014,09,28,07,07,8.10
2014,09,28,07,08,8.10
2014,09,28,07,09,8.10
2014,09,28,07,10,8.10
2014,09,28,07,11,8.10
2014,09,28,07,12,8.10
2014,09,28,07,13,8.00
2014,09,28,07,14,8.10
2014,09,28,07,15,8.00
2014,09,28,07,16,8.00
2014,09,28,07,17,8.00
2014,09,28,07,18,8.00
2014,09,28,07,19,8.00
2014,09,28,07,20,8.00
2014,09,28,07,21,8.00
2014,09,28,07,22,8.00
2014,09,28,07,23,7.90
2014,09,28,07,24,7.90
2014,09,28,07,25,7.90
2014,09,28,07,26,7.90
2014,09,28,07,27,7.90
2014,09,28,07,28,7.90
2014,09,28,07,29,7.90
2014,09,28,07,30,7.90
2014,09,28,07,31,7.90
2014,09,28,07,32,7.90
2014,09,28,07,33,7.90
2014,09,28,07,34,7.80
2014,09,28,07,35,7.80
2014,09,28,07,36,7.80
2014,09,28,07,37,7.80
2014,09,28,07,38,7.80
2014,09,28,07,39,7.80
2014,09,28,07,40,7.80
2014,09,28,07,41,7.80
2014,09,28,07,42,7.80
2014,09,28,07,43,7.80
2014,09,28,07,44,7.80
2014,09,28,07,45,7.80
2014,09,28,07,46,7.70
2014,09,28,07,47,7.70
2014,09,28,07,48,7.70
2014,09,28,07,49,7.70
2014,09,28,07,50,7.80
2014,09,28,07,51,7.80
2014,09,28,07,52,7.80
2014,09,28,07,53,7.80
2014,09,28,07,54,7.80
2014,09,28,07,55,7.80
2014,09,28,07,56,7.80
2014,09,28,07,57,7.80
2014,09,28,07,58,7.90
2014,09,28,07,59,7.90
2014,09,28,08,00,7.90
2014,09,28,08,01,8.00
2014,09,28,08,02,8.00
2014,09,28,08,03,8.00
2014,09,28,08,04,8.00
2014,09,28,08,05,8.00
2014,09,28,08,06,8.00
2014,09,28,08,07,8.00
2014,09,28,08,08,8.10
2014,09,28,08,09,8.10
2014,09,28,08,10,8.10
2014,09,28,08,11,8.10
2014,09,28,08,12,8.10
2014,09,28,08,13,8.20
2014,09,28,08,14,8.20
2014,09,28,08,15,8.20
2014,09,28,08,16,8.20
2014,09,28,08,17,8.20
2014,09,28,08,18,8.30
2014,09,28,08,19,8.30
2014,09,28,08,20,8.30
2014,09,28,08,21,8.30
2014,09,28,08,22,8.30
2014,09,28,08,23,8.30
2014,09,28,08,24,8.40
2014,09,28,08,25,8.40
2014,09,28,08,26,8.40
2014,09,28,08,27,8.40
2014,09,28,08,28,8.40
2014,09,28,08,29,8.50
2014,09,28,08,30,8.50
2014,09,28,08,31,8.60
2014,09,28,08,32,8.60
2014,09,28,08,33,8.60
2014,09,28,08,34,8.70
2014,09,28,08,35,8.70
2014,09,28,08,36,8.70
2014,09,28,08,37,8.70
2014,09,28,08,38,8.70
2014,09,28,08,39,8.70
2014,09,28,08,40,8.80
2014,09,28,08,41,8.80
2014,09,28,08,42,8.80
2014,09,28,08,43,8.90
2014,09,28,08,44,8.90
2014,09,28,08,45,8.90
2014,09,28,08,46,9.00
2014,09,28,08,47,9.10
2014,09,28,08,48,9.10
2014,09,28,08,49,9.20
2014,09,28,08,50,9.20
2014,09,28,08,51,9.30
2014,09,28,08,52,9.30
2014,09,28,08,53,9.40
2014,09,28,08,54,9.40
2014,09,28,08,55,9.50
2014,09,28,08,56,9.50
2014,09,28,08,57,9.60
2014,09,28,08,58,9.70
2014,09,28,08,59,9.80
2014,09,28,09,00,9.90
2014,09,28,09,01,9.90
2014,09,28,09,02,10.00
2014,09,28,09,03,10.10
2014,09,28,09,04,10.20
2014,09,28,09,05,10.20
2014,09,28,09,06,10.30
2014,09,28,09,07,10.30
2014,09,28,09,08,10.30
2014,09,28,09,09,10.40
2014,09,28,09,10,10.40
2014,09,28,09,11,10.40
2014,09,28,09,12,10.40
2014,09,28,09,13,10.50
2014,09,28,09,14,10.50
2014,09,28,09,15,10.50
2014,09,28,09,16,10.60
2014,09,28,09,17,10.70
2014,09,28,09,18,10.70
2014,09,28,09,19,10.80
2014,09,28,09,20,10.90
2014,09,28,09,21,11.00
2014,09,28,09,22,11.10
2014,09,28,09,23,11.20
2014,09,28,09,24,11.20
2014,09,28,09,25,11.30
2014,09,28,09,26,11.30
2014,09,28,09,27,11.40
2014,09,28,09,28,11.40
2014,09,28,09,29,11.50
2014,09,28,09,30,11.60
2014,09,28,09,31,11.60
2014,09,28,09,32,11.70
2014,09,28,09,33,11.80
2014,09,28,09,34,11.90
2014,09,28,09,35,11.90
2014,09,28,09,36,12.00
2014,09,28,09,37,12.00
2014,09,28,09,38,12.00
2014,09,28,09,39,12.10
2014,09,28,09,40,12.10
2014,09,28,09,41,12.10
2014,09,28,09,42,12.20
2014,09,28,09,43,12.20
2014,09,28,09,44,12.20
2014,09,28,09,45,12.30
2014,09,28,09,46,12.30
2014,09,28,09,47,12.40
2014,09,28,09,48,12.40
2014,09,28,09,49,12.50
2014,09,28,09,50,12.60
2014,09,28,09,51,12.60
2014,09,28,09,52,12.70
2014,09,28,09,53,12.70
2014,09,28,09,54,12.70
2014,09,28,09,55,12.80
2014,09,28,09,56,12.80
2014,09,28,09,57,12.90
2014,09,28,09,58,12.90
2014,09,28,09,59,13.00
2014,09,28,10,00,13.10
2014,09,28,10,01,13.20
2014,09,28,10,02,13.20
2014,09,28,10,03,13.20
2014,09,28,10,04,13.30
2014,09,28,10,05,13.30
2014,09,28,10,06,13.40
2014,09,28,10,07,13.50
2014,09,28,10,08,13.60
2014,09,28,10,09,13.70
2014,09,28,10,10,13.70
2014,09,28,10,11,13.80
2014,09,28,10,12,13.90
2014,09,28,10,13,13.90
2014,09,28,10,14,14.00
2014,09,28,10,15,14.10
2014,09,28,10,16,14.20
2014,09,28,10,17,14.20
2014,09,28,10,18,14.30
2014,09,28,10,19,14.30
2014,09,28,10,20,14.30
2014,09,28,10,21,14.40
2014,09,28,10,22,14.40
2014,09,28,10,23,14.50
2014,09,28,10,24,14.60
2014,09,28,10,25,14.60
2014,09,28,10,26,14.60
2014,09,28,10,27,14.60
2014,09,28,10,28,14.70
2014,09,28,10,29,14.70
2014,09,28,10,30,14.70
2014,09,28,10,31,14.70
2014,09,28,10,32,14.80
2014,09,28,10,33,14.80
2014,09,28,10,34,14.80
2014,09,28,10,35,14.90
2014,09,28,10,36,15.00
2014,09,28,10,37,15.00
2014,09,28,10,38,15.10
2014,09,28,10,39,15.20
2014,09,28,10,40,15.30
2014,09,28,10,41,15.40
2014,09,28,10,42,15.40
2014,09,28,10,43,15.50
2014,09,28,10,44,15.60
2014,09,28,10,45,15.60
2014,09,28,10,46,15.60
2014,09,28,10,47,15.70
2014,09,28,10,48,15.70
2014,09,28,10,49,15.80
2014,09,28,10,50,15.80
2014,09,28,10,51,15.90
2014,09,28,10,52,16.00
2014,09,28,10,53,16.10
2014,09,28,10,54,16.20
2014,09,28,10,55,16.20
2014,09,28,10,56,16.30
2014,09,28,10,57,16.40
2014,09,28,10,58,16.50
2014,09,28,10,59,16.50
2014,09,28,11,00,16.60
2014,09,28,11,01,16.70
2014,09,28,11,02,16.80
2014,09,28,11,03,16.90
2014,09,28,11,04,17.00
2014,09,28,11,05,17.10
2014,09,28,11,06,17.10
2014,09,28,11,07,17.20
2014,09,28,11,08,17.30
2014,09,28,11,09,17.30
2014,09,28,11,10,17.30
2014,09,28,11,11,17.30
2014,09,28,11,12,17.30
2014,09,28,11,13,17.40
2014,09,28,11,14,17.50
2014,09,28,11,15,17.60
2014,09,28,11,16,17.70
2014,09,28,11,17,17.70
2014,09,28,11,18,17.80
2014,09,28,11,19,17.80
2014,09,28,11,20,17.80
2014,09,28,11,21,17.90
2014,09,28,11,22,17.90
2014,09,28,11,23,17.90
2014,09,28,11,24,18.00
2014,09,28,11,25,18.00
2014,09,28,11,26,18.00
2014,09,28,11,27,18.10
2014,09,28,11,28,18.20
2014,09,28,11,29,18.20
2014,09,28,11,30,18.30
2014,09,28,11,31,18.30
2014,09,28,11,32,18.30
2014,09,28,11,33,18.30
2014,09,28,11,34,18.30
2014,09,28,11,35,18.30
2014,09,28,11,36,18.30
2014,09,28,11,37,18.30
2014,09,28,11,38,18.30
2014,09,28,11,39,18.30
2014,09,28,11,40,18.30
2014,09,28,11,41,18.30
2014,09,28,11,42,18.30
2014,09,28,11,43,18.30
2014,09,28,11,44,18.30
2014,09,28,11,45,18.30
2014,09,28,11,46,18.30
2014,09,28,11,47,18.30
2014,09,28,11,48,18.30
2014,09,28,11,49,18.30
2014,09,28,11,50,18.30
2014,09,28,11,51,18.40
2014,09,28,11,52,18.50
2014,09,28,11,53,18.60
2014,09,28,11,54,18.70
2014,09,28,11,55,18.70
2014,09,28,11,56,18.80
2014,09,28,11,57,18.80
2014,09,28,11,58,18.80
2014,09,28,11,59,18.80
2014,09,28,12,00,18.80
2014,09,28,12,01,18.90
2014,09,28,12,02,18.90
2014,09,28,12,03,18.90
2014,09,28,12,04,19.00
2014,09,28,12,05,19.10
2014,09,28,12,06,19.20
2014,09,28,12,07,19.20
2014,09,28,12,08,19.30
2014,09,28,12,09,19.30
2014,09,28,12,10,19.30
2014,09,28,12,11,19.30
2014,09,28,12,12,19.30
2014,09,28,12,13,19.30
2014,09,28,12,14,19.30
2014,09,28,12,15,19.30
2014,09,28,12,16,19.30
2014,09,28,12,17,19.30
2014,09,28,12,18,19.30
2014,09,28,12,19,19.30
2014,09,28,12,20,19.30
2014,09,28,12,21,19.30
2014,09,28,12,22,19.30
2014,09,28,12,23,19.30
2014,09,28,12,24,19.20
2014,09,28,12,25,19.20
2014,09,28,12,26,19.20
2014,09,28,12,27,19.20
2014,09,28,12,28,19.20
2014,09,28,12,29,19.20
2014,09,28,12,30,19.20
2014,09,28,12,31,19.20
2014,09,28,12,32,19.30
2014,09,28,12,33,19.30
2014,09,28,12,34,19.40
2014,09,28,12,35,19.40
2014,09,28,12,36,19.40
2014,09,28,12,37,19.40
2014,09,28,12,38,19.40
2014,09,28,12,39,19.40
2014,09,28,12,40,19.40
2014,09,28,12,41,19.40
2014,09,28,12,42,19.40
2014,09,28,12,43,19.40
2014,09,28,12,44,19.50
2014,09,28,12,45,19.40
2014,09,28,12,46,19.40
2014,09,28,12,47,19.50
2014,09,28,12,48,19.60
2014,09,28,12,49,19.60
2014,09,28,12,50,19.60
2014,09,28,12,51,19.70
2014,09,28,12,52,19.70
2014,09,28,12,53,19.80
2014,09,28,12,54,19.80
2014,09,28,12,55,19.80
2014,09,28,12,56,19.90
2014,09,28,12,57,19.90
2014,09,28,12,58,19.90
2014,09,28,12,59,19.90
2014,09,28,13,00,19.90
2014,09,28,13,01,20.00
2014,09,28,13,02,20.00
2014,09,28,13,03,20.10
2014,09,28,13,04,19.90
2014,09,28,13,05,19.80
2014,09,28,13,06,19.80
2014,09,28,13,07,19.80
2014,09,28,13,08,19.70
2014,09,28,13,09,19.70
2014,09,28,13,10,19.80
2014,09,28,13,11,19.80
2014,09,28,13,12,19.80
2014,09,28,13,13,19.80
2014,09,28,13,14,19.90
2014,09,28,13,15,20.00
2014,09,28,13,16,20.10
2014,09,28,13,17,20.10
2014,09,28,13,18,20.20
2014,09,28,13,19,20.10
2014,09,28,13,20,19.90
2014,09,28,13,21,19.70
2014,09,28,13,22,19.50
2014,09,28,13,23,19.40
2014,09,28,13,24,19.30
2014,09,28,13,25,19.20
2014,09,28,13,26,19.10
2014,09,28,13,27,19.00
2014,09,28,13,28,18.80
2014,09,28,13,29,18.80
2014,09,28,13,30,18.60
2014,09,28,13,31,18.40
2014,09,28,13,32,18.30
2014,09,28,13,33,18.20
2014,09,28,13,34,18.20
2014,09,28,13,35,18.20
2014,09,28,13,36,18.20
2014,09,28,13,37,18.30
2014,09,28,13,38,18.30
2014,09,28,13,39,18.30
2014,09,28,13,40,18.30
2014,09,28,13,41,18.30
2014,09,28,13,42,18.30
2014,09,28,13,43,18.30
2014,09,28,13,44,18.30
2014,09,28,13,45,18.30
2014,09,28,13,46,18.40
2014,09,28,13,47,18.40
2014,09,28,13,48,18.40
2014,09,28,13,49,18.40
2014,09,28,13,50,18.40
2014,09,28,13,51,18.30
2014,09,28,13,52,18.20
2014,09,28,13,53,18.10
2014,09,28,13,54,18.10
2014,09,28,13,55,18.00
2014,09,28,13,56,18.00
2014,09,28,13,57,18.00
2014,09,28,13,58,18.00
2014,09,28,13,59,18.00
2014,09,28,14,00,18.00
2014,09,28,14,01,18.10
2014,09,28,14,02,18.10
2014,09,28,14,03,18.20
2014,09,28,14,04,18.20
2014,09,28,14,05,18.40
2014,09,28,14,06,18.40
2014,09,28,14,07,18.50
2014,09,28,14,08,18.40
2014,09,28,14,09,18.40
2014,09,28,14,10,18.30
2014,09,28,14,11,18.40
2014,09,28,14,12,18.40
2014,09,28,14,13,18.40
2014,09,28,14,14,18.40
2014,09,28,14,15,18.50
2014,09,28,14,16,18.50
2014,09,28,14,17,18.60
2014,09,28,14,18,18.70
2014,09,28,14,19,18.70
2014,09,28,14,20,18.80
2014,09,28,14,21,18.80
2014,09,28,14,22,18.80
2014,09,28,14,23,18.80
2014,09,28,14,24,18.80
2014,09,28,14,25,18.80
2014,09,28,14,26,18.80
2014,09,28,14,27,18.90
2014,09,28,14,28,19.00
2014,09,28,14,29,19.00
2014,09,28,14,30,19.10
2014,09,28,14,31,19.20
2014,09,28,14,32,19.20
2014,09,28,14,33,19.10
2014,09,28,14,34,19.00
2014,09,28,14,35,18.90
2014,09,28,14,36,18.90
2014,09,28,14,37,18.90
2014,09,28,14,38,18.90
2014,09,28,14,39,18.90
2014,09,28,14,40,18.90
2014,09,28,14,41,18.90
2014,09,28,14,42,18.90
2014,09,28,14,43,19.00
2014,09,28,14,44,19.10
2014,09,28,14,45,19.10
2014,09,28,14,46,19.10
2014,09,28,14,47,19.10
2014,09,28,14,48,19.20
2014,09,28,14,49,19.30
2014,09,28,14,50,19.30
2014,09,28,14,51,19.30
2014,09,28,14,52,19.40
2014,09,28,14,53,19.40
2014,09,28,14,54,19.40
2014,09,28,14,55,19.40
2014,09,28,14,56,19.40
2014,09,28,14,57,19.40
2014,09,28,14,58,19.50
2014,09,28,14,59,19.50
2014,09,28,15,00,19.50
2014,09,28,15,01,19.60
2014,09,28,15,02,19.70
2014,09,28,15,03,19.70
2014,09,28,15,04,19.80
2014,09,28,15,05,19.90
2014,09,28,15,06,20.00
2014,09,28,15,07,20.10
2014,09,28,15,08,20.10
2014,09,28,15,09,20.00
2014,09,28,15,10,19.90
2014,09,28,15,11,19.90
2014,09,28,15,12,19.80
2014,09,28,15,13,19.80
2014,09,28,15,14,19.80
2014,09,28,15,15,19.80
2014,09,28,15,16,19.80
2014,09,28,15,17,19.80
2014,09,28,15,18,19.80
2014,09,28,15,19,19.90
2014,09,28,15,20,19.90
2014,09,28,15,21,19.90
2014,09,28,15,22,19.90
2014,09,28,15,23,19.80
2014,09,28,15,24,19.80
2014,09,28,15,25,19.70
2014,09,28,15,26,19.60
2014,09,28,15,27,19.60
2014,09,28,15,28,19.50
2014,09,28,15,29,19.50
2014,09,28,15,30,19.60
2014,09,28,15,31,19.60
2014,09,28,15,32,19.60
2014,09,28,15,33,19.60
2014,09,28,15,34,19.80
2014,09,28,15,35,19.80
2014,09,28,15,36,19.80
2014,09,28,15,37,19.80
2014,09,28,15,38,19.70
2014,09,28,15,39,19.70
2014,09,28,15,40,19.70
2014,09,28,15,41,19.70
2014,09,28,15,42,19.70
2014,09,28,15,43,19.70
2014,09,28,15,44,19.60
2014,09,28,15,45,19.60
2014,09,28,15,46,19.60
2014,09,28,15,47,19.60
2014,09,28,15,48,19.70
2014,09,28,15,49,19.70
2014,09,28,15,50,19.60
2014,09,28,15,51,19.70
2014,09,28,15,52,19.70
2014,09,28,15,53,19.70
2014,09,28,15,54,19.70
2014,09,28,15,55,19.70
2014,09,28,15,56,19.70
2014,09,28,15,57,19.80
2014,09,28,15,58,19.90
2014,09,28,15,59,19.90
2014,09,28,16,00,19.90
2014,09,28,16,01,19.90
2014,09,28,16,02,19.90
2014,09,28,16,03,19.80
2014,09,28,16,04,19.80
2014,09,28,16,05,19.80
2014,09,28,16,06,19.90
2014,09,28,16,07,20.00
2014,09,28,16,08,20.10
2014,09,28,16,09,20.10
2014,09,28,16,10,20.10
2014,09,28,16,11,20.00
2014,09,28,16,12,19.90
2014,09,28,16,13,19.80
2014,09,28,16,14,19.70
2014,09,28,16,15,19.70
2014,09,28,16,16,19.80
2014,09,28,16,17,19.80
2014,09,28,16,18,19.80
2014,09,28,16,19,19.80
2014,09,28,16,20,19.80
2014,09,28,16,21,19.70
2014,09,28,16,22,19.60
2014,09,28,16,23,19.50
2014,09,28,16,24,19.40
2014,09,28,16,25,19.30
2014,09,28,16,26,19.20
2014,09,28,16,27,19.10
2014,09,28,16,28,19.00
2014,09,28,16,29,19.00
2014,09,28,16,30,18.90
2014,09,28,16,31,18.80
2014,09,28,16,32,18.70
2014,09,28,16,33,18.60
2014,09,28,16,34,18.50
2014,09,28,16,35,18.40
2014,09,28,16,36,18.40
2014,09,28,16,37,18.30
2014,09,28,16,38,18.20
2014,09,28,16,39,18.20
2014,09,28,16,40,18.20
2014,09,28,16,41,18.10
2014,09,28,16,42,18.20
2014,09,28,16,43,18.20
2014,09,28,16,44,18.20
2014,09,28,16,45,18.30
2014,09,28,16,46,18.30
2014,09,28,16,47,18.30
2014,09,28,16,48,18.30
2014,09,28,16,49,18.30
2014,09,28,16,50,18.30
2014,09,28,16,51,18.30
2014,09,28,16,52,18.40
2014,09,28,16,53,18.40
2014,09,28,16,54,18.30
2014,09,28,16,55,18.30
2014,09,28,16,56,18.30
2014,09,28,16,57,18.20
2014,09,28,16,58,18.30
2014,09,28,16,59,18.30
2014,09,28,17,00,18.30
2014,09,28,17,01,18.30
2014,09,28,17,02,18.30
2014,09,28,17,03,18.20
2014,09,28,17,04,18.30
2014,09,28,17,05,18.30
2014,09,28,17,06,18.30
2014,09,28,17,07,18.30
2014,09,28,17,08,18.30
2014,09,28,17,09,18.20
2014,09,28,17,10,18.30
2014,09,28,17,11,18.30
2014,09,28,17,12,18.40
2014,09,28,17,13,18.50
2014,09,28,17,14,18.60
2014,09,28,17,15,18.60
2014,09,28,17,16,18.60
2014,09,28,17,17,18.70
2014,09,28,17,18,18.60
2014,09,28,17,19,18.60
2014,09,28,17,20,18.50
2014,09,28,17,21,18.50
2014,09,28,17,22,18.50
2014,09,28,17,23,18.50
2014,09,28,17,24,18.60
2014,09,28,17,25,18.70
2014,09,28,17,26,18.70
2014,09,28,17,27,18.80
2014,09,28,17,28,18.90
2014,09,28,17,29,19.00
2014,09,28,17,30,19.00
2014,09,28,17,31,19.10
2014,09,28,17,32,19.20
2014,09,28,17,33,19.20
2014,09,28,17,34,19.20
2014,09,28,17,35,19.30
2014,09,28,17,36,19.30
2014,09,28,17,37,19.40
2014,09,28,17,38,19.40
2014,09,28,17,39,19.50
2014,09,28,17,40,19.50
2014,09,28,17,41,19.50
2014,09,28,17,42,19.50